Terminal Aerodrome Forecast
Issued by NWS Wichita, KS

Home | Current Version | Previous Version | Graphics & Text | Print | Product List | Glossary On
Versions: 1 2 3 4 5 6 7 8 9 10 11 12 13 14 15 16 17 18 19 20 21 22 23 24
000
FTUS43 KICT 291859 AAA
TAFICT
TAF AMD
KICT 291859Z 2919/3018 07016G24KT 6SM -SHRA VCTS OVC008CB
      TEMPO 2919/2922 1 1/2SM +TSRA BKN008 OVC012CB
     FM292200 06016G22KT 6SM -SHRA VCTS OVC010CB
      TEMPO 2922/3002 2SM +TSRA BKN008 OVC015CB
     FM300200 12014KT 4SM BR VCTS OVC008CB
     FM300800 30010KT 3SM BR OVC008
     FM301600 27014KT P6SM SCT035=

USA.gov is the U.S. government's official web portal to all federal, state and local government web resources and services.